Regional Weather Roundup
Issued by NWS Little Rock, AR

Home | Current Version | Previous Version | Text Only | Print | Product List | Glossary On
Versions: 1 2 3 4 5 6 7 8 9 10 11 12 13 14 15 16 17 18 19 20 21 22 23 24 25 26 27 28 29 30 31 32 33 34 35 36 37 38 39 40 41 42 43 44 45 46 47 48 49 50
000
ASUS44 KLZK 040805
RWRLZK

WEATHER ROUNDUP FOR ARKANSAS
NATIONAL WEATHER SERVICE LITTLE ROCK AR
200 AM CST WED MAR 04 2015

NOTE: "FAIR" INDICATES FEW OR NO CLOUDS BELOW 12,000 FEET WITH NO
SIGNIFICANT WEATHER AND/OR OBSTRUCTIONS TO VISIBILITY.

ARZ001-003-010-029-040900-
NORTHWEST ARKANSAS

CITY           SKY/WX    TMP DP  RH WIND       PRES   REMARKS
FAYETTEVILLE   CLOUDY    47  47 100 N9        29.87S FOG
FORT SMITH     CLOUDY    45  43  93 S3        29.87S FOG
HARRISON       CLOUDY    44  44 100 CALM      29.88S FOG
BENTONVILLE    CLOUDY    45  39  81 NE12      29.89F
ROGERS         CLOUDY    43  42  97 N14       29.89S FOG
SILOAM SPGS    CLOUDY    45  39  81 N8        29.89F
HIGHFILL       CLOUDY    45  43  93 NE10      29.88R
$$

ARZ004-005-016-040900-
NORTH CENTRAL ARKANSAS

CITY           SKY/WX    TMP DP  RH WIND       PRES   REMARKS
BATESVILLE     CLOUDY    50  48  93 CALM      29.88R
FLIPPIN        CLOUDY    45  41  87 CALM      29.88F
MTN HOME       LGT RAIN  44  43  96 E6        29.87F FOG
$$

ARZ040-041-040900-
WEST CENTRAL ARKANSAS

CITY           SKY/WX    TMP DP  RH WIND       PRES   REMARKS
MENA           CLOUDY    54  52  94 CALM      29.85S
MOUNT IDA      LGT RAIN  52  51  97 CALM      29.82S VSB 3/4
$$

ARZ009-017-025-026-028-040900-
NORTHEAST ARKANSAS

CITY           SKY/WX    TMP DP  RH WIND       PRES   REMARKS
CORNING        CLOUDY    45  45 100 NE16      29.90F FOG
JONESBORO      LGT RAIN  48  48 100 NE12      29.87F FOG
NEWPORT        LGT RAIN  49  49 100 NE9       29.88F
WALNUT RIDGE   CLOUDY    46  43  87 N9        29.87F
BLYTHEVILLE    LGT RAIN  48  48 100 N8        29.89S FOG
$$

ARZ022-023-033-042-044-040900-
CENTRAL ARKANSAS

CITY           SKY/WX    TMP DP  RH WIND       PRES   REMARKS
LITTLE ROCK    LGT RAIN  53  50  89 CALM      29.86F VSB 1/2
N LITTLE ROCK    N/A     52  52 100 NE3       29.86F
JACKSONVILLE   LGT RAIN  53  53 100 SE5       29.84F FOG
SEARCY         LGT RAIN  52  52 100 N3        29.88S FOG
HOT SPRINGS    LGT RAIN  53  52  96 SW5       29.86S VSB 3/4
RUSSELLVILLE   LGT RAIN  47  46  97 CALM      29.86R FOG
CLINTON        CLOUDY    46  46 100 CALM      29.89R FOG
$$

ARZ036-040900-
EAST ARKANSAS

CITY           SKY/WX    TMP DP  RH WIND       PRES   REMARKS
WEST MEMPHIS   CLOUDY    53  53 100 N7        29.86F FOG
$$

ARZ050-053-066-070-073-040900-
SOUTHWEST ARKANSAS

CITY           SKY/WX    TMP DP  RH WIND       PRES   REMARKS
ARKADELPHIA    FOG       51  51 100 CALM      29.87S VSB 1/2
CAMDEN         MOCLDY    64  61  88 MISG      29.87S
TEXARKANA      LGT RAIN  55  54  96 CALM      29.88R FOG
EL DORADO      CLOUDY    65  62  90 S10       29.87F
DE QUEEN       CLOUDY    51  50  96 W3        29.84F FOG
$$

ARZ056-057-069-040900-
SOUTHEAST ARKANSAS

CITY           SKY/WX    TMP DP  RH WIND       PRES   REMARKS
PINE BLUFF     CLOUDY    64  61  90 S13       29.85F
STUTTGART      CLOUDY    52  50  93 N3        29.86F
MONTICELLO     MOCLDY    66  62  87 SW14G21   29.87F

$$




USA.gov is the U.S. government's official web portal to all federal, state and local government web resources and services.